COSMOS 528

Satellite information

Favourite Embed

Satellite Type and Status

PAYLOADIN ORBIT

Key statistics

Satellite COSMOS 528 at a glance.

Uptime

19359

Days in orbit

Revolutions

≈ 12.6

Per day

Orbit

LEO

Low Earth Orbit

Inclination

74.0

Latest

Satellite identification and parameters

Extended collection of information and parameters for COSMOS 528.

Object identification

Identified? True

Debris? False

Object name: COSMOS 528

International designator: 1972-087A

Object number (NORAD): 6262

Object ID (CCSDS): 6262

Country: COMMONWEALTH OF INDEPENDENT STATES (CIS)

Current information (Y/N): Y

RCS size: MEDIUM

Orbital parameters

Period: 114.14 minutes

Inclination: 74.0334 deg

SMA: 7794.437 km

Apoapsis: 1467.482 km

Periapsis: 1365.122 km

RAAN: 89.818 deg

Eccentricy: 0.00656624

Argument of periapsis: 238.5629 deg

Mean anomaly: 132.7881 deg

Mean motion: 12.61611479 rev/day

Mean motion (dot): 0.00000008 rev/day2

B* drag term: 0.00013898983 1/REarth

Two-line elements (TLE)

Creation date: Nov. 1, 2025, 7:40 p.m.

Reference frame: TEME

Reference center: EARTH

Epoch: Nov. 1, 2025, 3:43 p.m. UTC

TLE line 0: 0 COSMOS 528

TLE line 1: 1 06262U 72087A 25305.65540197 .00000008 00000-0 13899-3 0 9993

TLE line 2: 2 06262 74.0334 89.8180 0065662 238.5629 132.7881 12.61611479441099

Live tracking on map

Real-time ground track for satellite COSMOS 528.

In-orbit conjunctions

There are no conjunctions computed for COSMOS 528, at the moment. Check back to stay up to date, as we update our databases every day.

Go to all conjunctions

Associated space launch

Military communications satellites

COSMOS 528 was lifted into orbit during the mission ‘Kosmos-3M | Strela-1M 33-40’, on board a Kosmos-3M space rocket.

The launch took place on Nov. 1, 1972, 2:08 a.m. from 132/2.

For more information about the launch, click the button.

Launch to space Kosmos-3M | Strela-1M 33-40
Kosmos-3M | Strela-1M 33-40

Agency: N/A

Status: Launch Successful

Launch date: Nov. 1, 1972, 2:08 a.m. UTC

Rocket: Kosmos-3M

Launch pad: 132/2

Location: Plesetsk Cosmodrome, Russian Federation

...

Latest news about this satellite

There are no fresh news available about this satellite. Check back as we update our databases every day.


Newsletter sign-up

Weekly statistics, charts and insights to help you stay on top of the space industry.